KD4PYR Weather Reports


time (UTC)temp
C
wind
direction
speed
KPH
gust
KPH
rain 1hr
cm
rain 24hr
cm
rain mn
cm
humidity
%
barometer
mb
20260505101816 14 290 1.6 9.7 0.08 0.08 0.08 79 1007.5
20260505100854 15 286 0.0 11.3 0.05 0.05 0.05 78 1007.5
20260505095838 16 285 3.2 16.1 0.03 0.03 0.03 77 1007.6
20260505094840 16 334 4.8 14.5 0.00 0.00 0.00 69 1007.5
20260505093815 17 150 1.6 8.0 0.00 0.00 0.00 67 1007.1
20260505092833 17 159 3.2 9.7 0.00 0.00 0.00 66 1006.8
20260505091826 17 178 1.6 11.3 0.00 0.00 0.00 66 1006.5
20260505090815 17 182 4.8 16.1 0.00 0.00 0.00 65 1006.1
20260505085838 17 188 4.8 11.3 0.00 0.00 0.00 65 1005.9
20260505084908 17 178 3.2 22.5 0.00 0.00 0.00 64 1005.8
20260505083838 17 182 4.8 16.1 0.00 0.00 0.00 64 1005.7
20260505082830 17 172 4.8 14.5 0.00 0.00 0.00 64 1005.5
20260505081909 17 199 6.4 14.5 0.00 0.00 0.00 64 1005.1
20260505080840 17 161 3.2 16.1 0.00 0.00 0.00 63 1004.9
20260505075824 17 216 6.4 14.5 0.00 0.00 0.00 63 1004.9
20260505074828 17 169 6.4 16.1 0.00 0.00 0.00 63 1004.9
20260505073849 17 144 6.4 17.7 0.00 0.00 0.00 64 1004.9
20260505072847 17 180 6.4 14.5 0.00 0.00 0.00 63 1004.8
20260505071834 17 176 6.4 16.1 0.00 0.00 0.00 63 1004.7
20260505070824 17 173 6.4 17.7 0.00 0.00 0.00 63 1004.7
20260505065828 17 171 4.8 17.7 0.00 0.00 0.00 63 1004.9
20260505064833 17 184 6.4 11.3 0.00 0.00 0.00 63 1005.0
20260505063826 17 186 6.4 14.5 0.00 0.00 0.00 63 1005.0
20260505062845 17 189 4.8 16.1 0.00 0.00 0.00 63 1004.9
20260505061840 17 165 6.4 19.3 0.00 0.00 0.00 63 1004.9
20260505060832 17 182 6.4 14.5 0.00 0.00 0.00 63 1004.9
20260505055859 17 173 6.4 16.1 0.00 0.00 0.00 63 1004.7
20260505054840 17 180 6.4 12.9 0.00 0.00 0.00 62 1004.6
20260505053829 17 172 6.4 11.3 0.00 0.00 0.00 63 1004.5
20260505052908 17 180 4.8 16.1 0.00 0.00 0.00 63 1004.5
20260505051838 18 169 6.4 12.9 0.00 0.00 0.00 62 1004.5
20260505050830 18 165 6.4 12.9 0.00 0.00 0.00 62 1004.6
20260505040900 18 194 4.8 16.1 0.00 0.00 0.00 62 1005.0
20260505035822 18 195 4.8 8.0 0.00 0.00 0.00 63 1005.1
20260505034855 18 183 6.4 11.3 0.00 0.00 0.00 63 1005.1
20260505033828 18 184 4.8 8.0 0.00 0.00 0.00 64 1005.1
20260505032840 18 182 3.2 11.3 0.00 0.00 0.00 64 1005.1
20260505031838 18 180 3.2 11.3 0.00 0.00 0.00 63 1005.0
20260505030829 18 162 4.8 8.0 0.00 0.00 0.00 63 1004.9
20260505025834 18 171 4.8 8.0 0.00 0.00 0.00 63 1004.9
20260505024815 18 155 4.8 11.3 0.00 0.00 0.00 62 1004.7
20260505023832 19 165 4.8 9.7 0.00 0.00 0.00 62 1004.6
20260505022825 19 146 3.2 8.0 0.00 0.00 0.00 62 1004.5
20260505021816 19 198 4.8 11.3 0.00 0.00 0.00 62 1004.4
20260505020852 19 192 4.8 9.7 0.00 0.00 0.00 61 1004.3
20260505015814 19 173 4.8 11.3 0.00 0.00 0.00 61 1004.0
20260505014839 20 173 3.2 9.7 0.00 0.00 0.00 60 1003.7
20260505013832 20 170 3.2 9.7 0.00 0.00 0.00 60 1003.7
20260505012826 20 175 3.2 12.9 0.00 0.00 0.00 60 1003.7
20260505011816 20 192 3.2 8.0 0.00 0.00 0.00 59 1003.7
20260505010835 20 188 3.2 9.7 0.00 0.00 0.00 59 1003.6
20260505005820 20 180 3.2 12.9 0.00 0.03 0.00 59 1003.5
20260505004912 20 177 3.2 8.0 0.00 0.03 0.00 59 1003.6
20260505003843 21 190 1.6 11.3 0.00 0.03 0.00 58 1003.5
20260505002833 21 201 4.8 16.1 0.00 0.03 0.00 58 1003.6
20260505001826 21 189 4.8 11.3 0.00 0.03 0.00 57 1003.8
20260505000844 21 194 4.8 16.1 0.00 0.03 0.00 56 1003.8
20260504235827 21 190 6.4 11.3 0.00 0.03 0.00 55 1003.9
20260504234850 21 183 4.8 11.3 0.00 0.03 0.00 55 1004.0
20260504233843 22 183 3.2 9.7 0.00 0.03 0.00 55 1004.1
20260504232836 22 169 6.4 20.9 0.00 0.03 0.00 53 1004.3
20260504231829 22 159 6.4 12.9 0.00 0.03 0.00 52 1004.5
20260504230846 22 162 4.8 17.7 0.00 0.03 0.00 51 1004.5
20260504225850 22 169 11.3 22.5 0.00 0.03 0.00 50 1004.6
20260504224830 22 169 6.4 19.3 0.00 0.03 0.00 50 1004.6
20260504223851 22 144 8.0 19.3 0.00 0.03 0.00 50 1004.6
20260504222851 23 190 8.0 19.3 0.00 0.03 0.00 49 1004.7
20260504221841 23 180 6.4 19.3 0.00 0.03 0.00 49 1004.8
20260504220831 23 173 9.7 27.4 0.00 0.03 0.00 48 1004.7
20260504215833 23 194 8.0 20.9 0.00 0.03 0.00 49 1004.8
20260504214836 23 193 6.4 17.7 0.00 0.03 0.00 49 1004.8
20260504213832 23 185 8.0 16.1 0.00 0.03 0.00 52 1004.8
20260504212850 23 192 9.7 16.1 0.00 0.03 0.00 51 1004.8
20260504211844 23 142 8.0 16.1 0.00 0.03 0.00 50 1005.0
20260504210832 23 200 11.3 19.3 0.00 0.03 0.00 51 1005.2
20260504205835 23 200 8.0 14.5 0.00 0.03 0.00 52 1005.3
20260504204841 23 178 4.8 11.3 0.00 0.03 0.00 53 1005.2
20260504203837 23 167 6.4 11.3 0.00 0.03 0.00 51 1005.3
20260504202829 23 209 3.2 11.3 0.00 0.03 0.00 52 1005.4
20260504201848 22 159 3.2 11.3 0.00 0.03 0.00 57 1005.6
20260504200839 22 154 3.2 11.3 0.00 0.03 0.00 56 1005.8
20260504195843 22 201 6.4 16.1 0.00 0.03 0.00 55 1006.0
20260504194846 22 192 9.7 20.9 0.00 0.03 0.00 54 1006.1
20260504193840 22 144 6.4 12.9 0.00 0.03 0.00 56 1006.3
20260504192832 23 202 4.8 16.1 0.00 0.03 0.00 55 1006.4
20260504191851 23 206 3.2 16.1 0.00 0.03 0.00 58 1006.4
20260504190841 22 175 1.6 11.3 0.00 0.03 0.00 61 1006.6
20260504185827 22 178 4.8 12.9 0.00 0.03 0.00 62 1006.7
20260504184848 21 174 1.6 9.7 0.00 0.03 0.00 65 1006.9
20260504183818 20 167 8.0 14.5 0.00 0.03 0.00 63 1007.1
20260504182856 20 161 8.0 16.1 0.00 0.03 0.00 62 1007.0
20260504181828 20 178 3.2 17.7 0.00 0.03 0.00 64 1006.8
20260504180844 20 188 8.0 16.1 0.00 0.03 0.00 64 1006.8
20260504175849 19 195 8.0 22.5 0.00 0.03 0.00 66 1006.6
20260504174850 19 184 11.3 29.0 0.00 0.03 0.00 65 1006.6
20260504173842 18 223 8.0 24.1 0.00 0.03 0.00 66 1006.8
20260504172901 18 182 4.8 14.5 0.00 0.03 0.00 68 1006.8
20260504171832 18 157 4.8 17.7 0.00 0.03 0.00 68 1006.8
20260504170825 17 178 8.0 16.1 0.00 0.03 0.00 68 1006.9
20260504150903 16 166 4.8 17.7 0.00 0.03 0.00 71 1007.4
20260504140818 14 178 3.2 12.9 0.00 0.03 0.00 73 1007.0